This demonstration page uses our WeatherBlox Daily Observations layout. Learn more.

Left ArrowRight Arrow

41.86663, -103.66717

Hourly Observations for March 30, 2021

Temp ( °F °C ) Dew Point ( °F °C ) Humidity (%) Winds ( mph kmh ) Pressure ( in mb ) Visibility ( mi km ) Precip ( " mm )
12:53 am 00:53 Clear 30 -1 N/A N/A NW 8 13 29.85 1011 10 16.0934 0 0
1:53 am 01:53 Clear 28 -2 N/A N/A WNW 6 9 29.86 1011 10 16.0934 0 0
2:53 am 02:53 Clear 28 -2 N/A N/A NW 7 11 29.88 1012 10 16.0934 0 0
3:53 am 03:53 Clear 27 -3 N/A N/A NW 9 15 29.93 1013 10 16.0934 0 0
4:53 am 04:53 Clear 27 -3 N/A N/A WSW 5 7 29.98 1015 10 16.0934 0 0
5:53 am 05:53 Clear 25 -4 N/A N/A W 7 11 30.04 1017 10 16.0934 0 0
6:53 am 06:53 Sunny 25 -4 N/A N/A W 5 7 30.09 1019 10 16.0934 0 0
7:53 am 07:53 Mostly Cloudy 28 -2.2 16 -8.9 60 60 NNW 5 7 30.11 1020 10 16.0934 0 0
8:53 am 08:53 Sunny 33 0.6 15 -9.4 47 47 NW 9 15 30.11 1020 10 16.0934 0 0
9:53 am 09:53 Mostly Sunny 37 2.8 10 -12.2 33 33 NNW 15 24 30.11 1020 10 16.0934 0 0
10:53 am 10:53 Partly Cloudy 38 3.3 10 -12.2 31 31 NNW 12 19 30.12 1020 10 16.0934 0 0
11:53 am 11:53 Partly Cloudy 39 3.9 9 -12.8 29 29 NW 13 20 30.12 1020 10 16.0934 0 0
12:53 pm 12:53 Partly Cloudy 41 5 9 -12.8 27 27 NW 12 19 30.11 1020 10 16.0934 0 0
1:53 pm 13:53 Mostly Sunny 41 5 6 -14.4 23 23 WNW 18 30 30.11 1020 10 16.0934 0 0
2:53 pm 14:53 Mostly Cloudy 42 5.6 8 -13.3 24 24 NNW 20 31 30.11 1020 10 16.0934 0 0
3:53 pm 15:53 Mostly Cloudy 42 5.6 8 -13.3 24 24 NW 21 33 30.11 1020 10 16.0934 0 0
4:53 pm 16:53 Mostly Sunny 42 5.6 8 -13.3 24 24 WNW 10 17 30.13 1020 10 16.0934 0 0
5:53 pm 17:53 Sunny 41 5 9 -12.8 27 27 NW 16 26 30.15 1021 10 16.0934 0 0
6:53 pm 18:53 Mostly Cloudy 37 2.8 13 -10.6 37 37 N 16 26 30.19 1023 10 16.0934 0 0
7:53 pm 19:53 Partly Cloudy 33 0.6 14 -10 45 45 N 7 11 30.23 1024 10 16.0934 0 0
8:53 pm 20:53 Mostly Cloudy 30 -1.1 13 -10.6 49 49 NNE 6 9 30.27 1025 10 16.0934 0 0
9:53 pm 21:53 Clear 28 -2.2 12 -11.1 51 51 NE 5 7 30.3 1026 10 16.0934 0 0
10:53 pm 22:53 Clear 27 -2.8 12 -11.1 53 53 SW 5 7 30.32 1027 10 16.0934 0 0
11:53 pm 23:53 Mostly Cloudy 23 -5 13 -10.6 65 65 NE 3 6 30.35 1028 10 16.0934 0 0

Powered by AerisWeather